Find Starlink 32879

NORAD ID: 62957 Int'l Des: 2025-029 Owner: SPXS Country: US Constellation: starlink operational
LEOCIRCULAR

現在のビュー

3D地球を読み込み中...

About Starlink 32879

Starlink 32879 (NORAD 62957) is a starlink constellation satellite (v2 mini) launched Feb 11, 2025 by SPXS of US. It operates in LEO, CIRCULAR orbit with a mass of 730.00 kg.

次回通過

Passes for default location (London). Set your location on the main map for personalized predictions.

高度履歴

Loading altitude history...

軌道要素

1 62957U 25029K 26249.02363573 .00018829 00000-0 61671-3 0 9991
2 62957 53.1582 113.6847 0001113 86.6014 273.5114 15.31714626 88944
Epoch: Sep 6, 2026 • Age: 14 hours

現在のステータス

高度 472.4 km
遠地点 / 近地点 N/A
速度 7.63 km/s
衛星直下点 33.38°N, 68.13°W
打ち上げ日 Feb 11, 2025
運用期間 1.5 years
タイプ internet

技術仕様

分類 Payload
質量 730.00 kg
乾燥質量 700.00 kg
総質量 730.00 kg
長さ 0.30 m
直径 4.10 m
スパン 29.00 m
形状 Box + pan
製造者 SPXS
バスタイプ Starlink V2M
フェーズステータス In Orbit
所有者/国 SPXS/US

Most Searched